Location: *
(51.5000°N, 0.1100°W)
Time: 18:01:04
(UTC+00:00)

Meteor 1-4 Rocket - Pass Details

Date: 25 May 2024
Orbit: 358 x 379 km, 81.2° (Epoch: 16 June)

Event Time Altitude Azimuth Distance (km) Brightness Sun altitude
Exits shadow 02:02:01 19° 247° (WSW) 942 3.6 -12.5°
Maximum altitude 02:03:21 27° 290° (WNW) 739 3.4 -12.4°
Drops below altitude 10° 02:05:56 10° 351° (N) 1,361 5.6 -12.2°
Sets 02:08:06 0° 4° (N) 2,219 7.1 -12.0°
